Location: Mladá Boleslav
(50.4134°N, 14.9084°E)
Time: 13:16:13
(UTC+02:00)

KKS-1 - Pass Details

Date: 03 June 2024
Orbit: 626 x 640 km, 98.1° (Epoch: 16 June)

Event Time Altitude Azimuth Distance (km) Brightness Sun altitude
Rises 01:01:17 0° 9° (N) 2,937 ? -17.2°
Reaches altitude 10° 01:03:32 10° 4° (N) 2,022 ? -17.2°
Maximum altitude 01:07:46 48° 291° (WNW) 830 ? -17.2°
Enters shadow 01:10:11 23° 228° (SW) 1,340 ? -17.2°
